Preview of NWS' New Version of Forecast
This preview is not operational and should not be used for support decisions.

Regional Weather Roundup (RWR)

Issued by Gray - Portland, ME (GYX)

                            
000
ASUS41 KGYX 181005
RWRGYX
WEATHER ROUNDUP FOR MAINE AND NEW HAMPSHIRE
NATIONAL WEATHER SERVICE GRAY ME
600 AM EDT SUN AUG 18 2019

MEZ002-005-006-010-012-015-018-020-021-024-026-027-029-181100-
MAINE
  
CITY           SKY/WX    TMP DP  RH WIND       PRES   REMARKS
PORTLAND       FAIR      66  65  96 SE5       29.99F FOG              
SANFORD        FOG       65  65 100 S3        30.01R VSB 1/2          
BAR HARBOR     LGT RAIN  62  62 100 CALM      30.02S FOG              
WISCASSET      CLOUDY    65  64  97 CALM      30.01S FOG              
ROCKLAND       LGT RAIN  63  63 100 CALM      30.01S VSB 1/4          
FRYEBURG       CLOUDY    64  63  96 NW3       30.00R                  
LEWISTONAUBURN CLOUDY    65  65 100 CALM      30.00S FOG              
AUGUSTA        FOG       65  65 100 CALM      30.01S VSB 3/4          
WATERVILLE     CLOUDY    64  64 100 CALM      29.99R FOG              
BANGOR         LGT RAIN  64  63  96 CALM      30.02S                  
GREENVILLE       N/A     61  60  97 SE5       30.01R                  
MILLINOCKET    CLOUDY    63  62  97 SE5       30.02S                  
HOULTON        LGT RAIN  63  61  93 S3        30.00F FOG              
PRESQUE ISLE   LGT RAIN  63  62  97 SE3       30.02R                  
FRENCHVILLE    LGT RAIN  62  61  96 SE6       30.00S FOG              
CARIBOU        CLOUDY    64  62  93 S5        30.01R                  
$$

NHZ002-005-008-009-011-012-014-181100-
NEW HAMPSHIRE
  
CITY           SKY/WX    TMP DP  RH WIND       PRES   REMARKS
PORTSMOUTH     CLOUDY    66  66 100 CALM      29.99R FOG              
ROCHESTER      FOG       66  65  96 CALM      30.00R VSB 1            
NASHUA         CLOUDY    66  66 100 CALM      30.01R FOG              
MANCHESTER     FOG       67  67 100 CALM      29.99R VSB 1/4          
CONCORD        MOCLDY    66  64  93 CALM      30.00R                  
LACONIA        FAIR      64  63  96 SW5       30.01S                  
PLYMOUTH       FOG       61  60  96 CALM      30.00S VSB<1/4          
BERLIN         CLOUDY    63  60  90 CALM      30.02S                  
WHITEFIELD     CLOUDY    64  62  93 CALM      30.02S                  
JAFFREY        CLOUDY    64  62  93 S3        30.03S FOG              
KEENE          CLOUDY    65  65 100 CALM      30.01S                  
LEBANON        CLOUDY    67  63  87 S3        30.01R FOG              
MT WASHINGTON  FOG       52  52 100 NW39        N/A  VSB 1/16         
$$

VTZ005-007-008-181100-
VERMONT
  
CITY           SKY/WX    TMP DP  RH WIND       PRES   REMARKS
ST JOHNSBURY     N/A     64  64 100 MISG      29.99S                  
MONTPELIER     CLOUDY    61  60  97 CALM      30.05R                  
BURLINGTON     MOCLDY    64  62  93 CALM      29.99S                  
$$

MAZ007-012-024-CTZ003-RIZ002-NYZ038-NYZ072-181100-
SOUTHERN NEW ENGLAND AND NY
  
CITY           SKY/WX    TMP DP  RH WIND       PRES   REMARKS
BOSTON         FOG       70  67  90 NE5       29.99R VSB 3/4          
WORCESTER      FOG       65  65 100 W9        30.02S VSB 3/4          
NANTUCKET      FOG       70  70 100 W3        30.00R VSB 1/2          
PROVIDENCE     MOCLDY    72  71  97 S3        29.99S                  
HARTFORD       FOG       65  63  93 CALM      30.00S VSB 1            
ALBANY         FOG       68  65  90 CALM      30.01R VSB 1            
NEW YORK CITY  CLOUDY    75  71  87 E5        29.99R                  
$$

ANZ081-ANZ082-ANZ150-NHZ014-MEZ023>029-181100-
COASTAL MARINE OBSERVATIONS
  
STATION/POSITION TIME  TEMP    WIND        PRES    WAVE
                       AIR SEA DIR/SP/G            HT/PER
                 (UTC) (F)     (DEG/KT/KT) (MB)    (FT/S)
MATINICUS ROCK   0950   62                 1015.7R
ISLE OF SHOALS   0900   67     300/  4/  4 1014.8F
JEFFREYS LEDGE   0938      67                N/A     2/ 8
CASHES LEDGE BUO 0950   65 65  180/  6/  8 1016.0R   2/ 7
GEORGES BANK BUO 0940   71 70     CALM     1015.9R
$$

.............KEY..............
   WCI - WIND CHILL
   TC  - TEMPERATURE IN CELSIUS
   VSB - VISIBILITY IN MILES
   HX  - HEAT INDEX
   FAIR- INDICATES FEW OR NO CLOUDS BELOW 12,000 FT, WITH NO 
         SIGNIFICANT WEATHER AND/OR OBSTRUCTIONS TO VISIBILITY.